Weather History for Medicine Hat, AB

Change the Weather History Date:

Wednesday, November 27, 2013

  Actual Average Record
Temperature  
Mean Temperature 24 °F -  
Max Temperature 33 °F 28 °F 60 °F (2011)
Min Temperature 14 °F 7 °F -7 °F (2006)
Degree Days  
Heating Degree Days 42    
Moisture  
Dew Point 21 °F    
Average Humidity 90    
Maximum Humidity 100    
Minimum Humidity 75    
Precipitation  
Precipitation 0.00 in 0.02 in - ()
Sea Level Pressure  
Sea Level Pressure 30.23 in    
Wind  
Wind Speed 5 mph ()    
Max Wind Speed 9 mph    
Max Gust Speed -    
Visibility 8.5 miles    
Events      
Averages and records for this station are not official NWS values.
T = Trace of Precipitation, MM = Missing Value Source: Averaged Metar Reports

Daily Weather History Graph

Daily Weather History Graph

Search for Another Location

Airport:

Trip Planner

Search our weather history database for the weather conditions in past years. The results will help you decide how hot, cold, wet, or windy it might be!

Date:

Astronomy

Nov. 27, 2013 Rise Set
Actual Time 7:54 AM MST 4:26 PM MST
Civil Twilight 7:17 AM MST 5:03 PM MST
Nautical Twilight 6:37 AM MST 5:43 PM MST
Astronomical Twilight 5:58 AM MST 6:22 PM MST
Moon 1:28 AM MST (11/27) 1:34 PM MST (11/27)
Length of Visible Light 9h 45m
Length of Day
8h 31m
Waning Crescent, 31% of the Moon is Illuminated
Nov 27
Waning Crescent
Dec 2
New
Dec 9
First Quarter
Dec 17
Full
Dec 25
Last Quarter

Hourly Weather History & Observations

Time (MST) Temp. Windchill Dew Point Humidity Pressure Visibility Wind Dir Wind Speed Gust Speed Precip Events Conditions
12:00 AM 26.6 °F 17.5 °F 23.0 °F 86% 30.09 in 9.0 mi West 9.2 mph - N/A   Partly Cloudy
1:00 AM 24.8 °F 19.1 °F 23.0 °F 93% 30.10 in 9.0 mi WSW 4.6 mph - N/A   Partly Cloudy
2:00 AM 23.0 °F 15.8 °F 21.2 °F 93% 30.13 in 9.0 mi West 5.8 mph - N/A   Scattered Clouds
3:00 AM 21.2 °F 14.9 °F 19.4 °F 93% 30.16 in 9.0 mi SW 4.6 mph - N/A   Clear
4:00 AM 19.4 °F 9.5 °F 19.4 °F 100% 30.18 in 7.0 mi West 8.1 mph - N/A   Clear
5:00 AM 17.6 °F 9.3 °F 17.6 °F 100% 30.20 in 6.0 mi South 5.8 mph - N/A   Clear
6:00 AM 17.6 °F 12.3 °F 15.8 °F 93% 30.22 in 15.0 mi SSW 3.5 mph - N/A   Clear
7:00 AM 14.0 °F 6.5 °F 14.0 °F 100% 30.22 in 15.0 mi SW 4.6 mph - N/A   Partly Cloudy
8:00 AM 14.0 °F 8.2 °F 14.0 °F 100% 30.23 in 6.0 mi West 3.5 mph - N/A   Mostly Cloudy
9:00 AM 17.6 °F 12.3 °F 15.8 °F 93% 30.26 in 6.0 mi SSW 3.5 mph - N/A   Mostly Cloudy
10:00 AM 23.0 °F - 21.2 °F 93% 30.27 in 10.0 mi Calm Calm - N/A   Mostly Cloudy
11:00 AM 24.8 °F 20.5 °F 21.2 °F 86% 30.27 in 4.0 mi SSW 3.5 mph - N/A   Mostly Cloudy
12:00 PM 28.4 °F 23.3 °F 23.0 °F 80% 30.26 in 6.0 mi SW 4.6 mph - N/A   Mostly Cloudy
1:00 PM 30.2 °F 24.3 °F 24.8 °F 80% 30.25 in 6.0 mi SW 5.8 mph - N/A   Mostly Cloudy
2:00 PM 33.8 °F 28.6 °F 26.6 °F 75% 30.24 in 8.0 mi SSW 5.8 mph - N/A   Mostly Cloudy
3:00 PM 33.8 °F 30.8 °F 26.6 °F 75% 30.24 in 10.0 mi SSW 3.5 mph - N/A   Scattered Clouds
4:00 PM 32.0 °F - 24.8 °F 75% 30.24 in 15.0 mi Calm Calm - N/A   Partly Cloudy
5:00 PM 30.2 °F 24.3 °F 24.8 °F 80% 30.25 in 15.0 mi ENE 5.8 mph - N/A   Partly Cloudy
6:00 PM 26.6 °F 20.0 °F 23.0 °F 86% 30.27 in 15.0 mi ENE 5.8 mph - N/A   Clear
7:00 PM 26.6 °F 21.2 °F 23.0 °F 86% 30.27 in 15.0 mi ENE 4.6 mph - N/A   Clear
8:00 PM 21.2 °F 13.6 °F 21.2 °F 100% 30.27 in 6.0 mi NE 5.8 mph - N/A   Clear
9:00 PM 21.2 °F 13.6 °F 19.4 °F 93% 30.26 in 4.0 mi NE 5.8 mph - N/A   Clear
10:00 PM 21.2 °F 14.9 °F 19.4 °F 93% 30.26 in 4.0 mi ENE 4.6 mph - N/A   Clear
10:41 PM 19.4 °F 12.8 °F 19.4 °F 100% 30.26 in 2.5 mi NE 4.6 mph - N/A   Clear
11:00 PM 17.6 °F 12.3 °F 17.6 °F 100% 30.26 in 2.2 mi NNE 3.5 mph - N/A   Clear